STARS-ME (43640 NORAD) Tracking and Keplerian Element Data

This shows tracking and keplerian element data for the satellite.

Feedback or suggestion? Click here.




ElementValue
Catalog43640
NameSTARS-ME
Epoch Orbit3071
Epoch Day111.89257286
Epoch Year2019
RAAN277.2958
Inclination51.6382
Eccentricity0.000544
Argument of Perigee238.415
Mean Anonmoly121.6311
Mean Motion15.57572893
Decay Rate8.629E-05
L11 43640U 98067PQ 19111.89257286 .00008629 00000-0 12126-3 0 9997
L22 43640 51.6382 277.2958 0005440 238.4150 121.6311 15.57572893 30718

Live tracking and technical data element details for STARS-ME (NORAD 43640). STARS-ME can be tracked NOW for your location showing map with azimuth and elevation plus other details from your city location.

Track the satellite on the map from your city or location and see movement details for azimuth, elevation, latitude, longitude, range, height, and movement on the map or in text.







IsCatalogInMostPopularTable: catalog: 43640, numindb: 122
Update: records affected: 1



GetName: 43640 STARS-ME

Hit Count: updated at: Tue, 23 Apr 2019 20:26:54 GMT